Location: Strada George Coșbuc
(47.6577°N, 23.5639°E)
Time: 09:00:38
(UTC+02:00)

ISS - Pass Details

Date: 24 July 2017
Orbit: 412 x 421 km, 51.6° (Epoch: 22 November)

Event Time Altitude Azimuth Distance (km) Brightness Sun altitude
Rises 21:52:24 0° 280° (W) 2,347 1.2 -6.6°
Reaches altitude 10° 21:54:34 10° 288° (WNW) 1,484 0.4 -6.9°
Maximum altitude 21:57:43 39° 359° (N) 633 -2.4 -7.3°
Drops below altitude 10° 22:00:53 10° 71° (ENE) 1,491 -1.3 -7.7°
Enters shadow 22:03:02 - 79° (E) 2,341 -0.3 -8.0°
